weather.gov     
National Weather Service

Regional Weather Roundup
NWS Homepage
This page is being discontinued on March 12, 2014.
The same data is available at this site. Please update your bookmarks.
Thank you, and we apologize for the inconvenience.
Please send an email to SR-SRH.Webmaster@noaa.gov with any concerns.


Current Version
Previous Version:    01  02  03  04  05  06  07  08  09  10  11  12  13  14  15  16  17  18  19  20  21  22  23  24  25  26  27  28  29  30  
   31  32  33  34  35  36  37  38  39  40  41  42  43  44  45  46  47  48  49  50  51  52  53  54  55  56  57  58  59  60  
[Printable]
142
ASHW40 PHFO 211043
RWRHI

WEATHER ROUNDUP FOR HAWAII
NATIONAL WEATHER SERVICE HONOLULU HI
1200 AM HST SUN DEC 21 2014

THIS IS AN AUTOMATED REPORT THAT HAS NOT BEEN QUALITY CONTROLLED.

NOTE..."FAIR" INDICATES FEW OR NO CLOUDS BELOW 12,000 FEET WITH NO
SIGNIFICANT WEATHER AND/OR OBSTRUCTIONS TO VISIBILITY.

* - THESE SITES REPORT LIMITED FIELDS

HIZ001>004-211100-
KAUAI-NIIHAU-

CITY           SKY/WX    TMP DP  RH WIND       PRES   REMARKS
LIHUE APT      PTCLDY    70  65  84 W8        30.07S
PORT ALLEN*      N/A     68 N/A N/A NE8         N/A
POIPU*           N/A     66 N/A N/A NW3         N/A
PRINCEVILLE*     N/A     66 N/A N/A MISG        N/A
KOKOLE POINT*  NOT AVBL
MOLOAA DAIRY*  NOT AVBL
WAIMEA HTS*      N/A     72  50  46 N1          N/A
PUU OPAE*        N/A     63  54  72 NE1         N/A
PUU LUA*       NOT AVBL
MAKAHA RIDGE*  NOT AVBL
$$

HIZ005>011-211100-
OAHU-

CITY           SKY/WX    TMP DP  RH WIND       PRES   REMARKS
HONOLULU       PTCLDY    73  67  81 NW3       30.03S
KALAELOA       MOCLDY    68  64  87 CALM      30.05S
KANEOHE MCB    MOCLDY    75  68  78 E7        30.04S
WHEELER FIELD  FAIR      67  65  92 N2        30.05S
BELLOWS*         N/A    N/A N/A N/A E12         N/A
KAHUKU*          N/A    N/A N/A N/A E3          N/A
WHEELER*       NOT AVBL
WAIANAE HARBOR NOT AVBL
DILLINGHAM*      N/A     66  64  94 S2          N/A
KAHUKU TRN*      N/A     72  68  88 E3G14       N/A
KAWAILOA*        N/A     70  64  83 E1          N/A
KII*             N/A     75  70  83 E12G17      N/A
MAKUA RANGE*     N/A     68  63  83 E7          N/A
OAHU FOREST NW   N/A     64 -11   4 CALM        N/A
SCHOFIELD BRK*   N/A    N/A N/A N/A MISG        N/A
SCHOFIELD S*   NOT AVBL
WAIANAE VLY*     N/A     64  61  88 N5          N/A
KUAOKALA*        N/A     72  63  73 CALM        N/A
HONOULIUULI*   NOT AVBL
MOKUOLOE IS*     N/A    N/A N/A N/A MISG        N/A
PALEHUA*         N/A     75  66  73 CALM        N/A
WAIAWA PHB*    NOT AVBL
$$

HIZ012>013-211100-
MOLOKAI-

CITY           SKY/WX    TMP DP  RH WIND       PRES   REMARKS
MOLOKAI AIRPT  CLEAR     65  62  90 CALM      30.04F
KALAUPAPA      NOT AVBL
MAKAPULAPAI*     N/A     70  63  78 S5          N/A
MOLOKAI 1*       N/A     61  59  94 NW1         N/A
PUU ALII*        N/A     57  56  97 SE2G9       N/A
$$

HIZ016-211100-
KAHOOLAWE-

CITY           SKY/WX    TMP DP  RH WIND       PRES   REMARKS
KAHOOLAWE*       N/A     68 N/A N/A E21G32      N/A
HAKIOAWA*        N/A     70  62  77 MISG      30.43F
HONOKANAIA*      N/A     75  65  70 NE13G26   30.03F
KANELOA*         N/A     73  66  78 E17G30    29.25F
KEALIALALO*    NOT AVBL
LUA MAKIKA*    NOT AVBL
$$

HIZ014>015-211100-
LANAI-

CITY           SKY/WX    TMP DP  RH WIND       PRES   REMARKS
LANAI CITY     FAIR      68  64  86 CALM      30.09F
LANAI 1*         N/A     68  68 100 VRB7        N/A
$$

HIZ017>028-211100-
MAUI-

CITY           SKY/WX    TMP DP  RH WIND       PRES   REMARKS
KAHULUI        PTCLDY    71  64  78 CALM      30.02F
KAPALUA-W MAUI NOT AVBL
HANA AIRPORT   MOCLDY    73  66  78 SE5       30.05F
HANA*            N/A     75 N/A N/A SE6G13      N/A
HALEAKALA SUMM   N/A     48 -17   6 E30G44      N/A
MAALAEA BAY*   NOT AVBL
HALEAKALA*     NOT AVBL
KAUPO GAP*       N/A     59  50  72 NE5G14      N/A
KULA 1*          N/A     56  -2   9 NE5         N/A
$$

HIZ023>026-211100-
BIG ISLAND OF HAWAII COAST AND LOWER SLOPES-

CITY           SKY/WX    TMP DP  RH WIND       PRES   REMARKS
KAILUA KONA    CLOUDY    75  64  69 CALM      30.01S
HILO           PTCLDY    69  64  84 SW6       30.05F
HONOKAA*       NOT AVBL
KAWAIHAE MWT*    N/A     73 N/A N/A E5          N/A
KAWAIHAE*        N/A     73 N/A N/A NE3         N/A
SOUTH POINT*     N/A     68 N/A N/A NE15G21     N/A
UPOLU AIRPORT*   N/A    N/A N/A N/A E3          N/A
KAMUELA*       CLOUDY    61  55  82 CALM      30.13S
HAKALAU*         N/A    N/A N/A N/A S10G20      N/A
KALOKO-HONOKO*   N/A     73  63  68 NE3         N/A
PALI 2*          N/A     59  57  94 NE7         N/A
KEALAKOMO*       N/A     81  73  78 N6          N/A
KAUPULEHU*       N/A     66  54  63 SE8         N/A
KAPAPALA*        N/A     58  53  85 CALM        N/A
LOWER KAHUKU*    N/A     59  57  94 N3G10       N/A
PUHE CS*       NOT AVBL
PUHO CS*         N/A     74  61  63 NE2         N/A
PTA KEAMUKU*     N/A     61  54  77 CALM        N/A
WAIKOLOA*        N/A     68  52  56 E7          N/A
$$

HIZ027>028-211100-
BIG ISLAND OF HAWAII INTERIOR AND SUMMMITS-

CITY           SKY/WX    TMP DP  RH WIND       PRES   REMARKS
BRADSHAW FIELD CLOUDY    47  32  55 N1        30.31S
MK VISITOR CEN NOT AVBL
MAUNA KEA*       N/A     28 -20  11 S21         N/A  WCI  15
MAUNA LOA*       N/A     41 -26   5 MISG        N/A
MAUNA LOA 1*   NOT AVBL
PTA KIPUKA*      N/A     52  50  93 S3          N/A
PTA RANGE 17*    N/A     46  45  93 E5G12       N/A
PTA WEST*        N/A     52  50  93 SE3G9       N/A
NENE CABIN*      N/A    N/A N/A N/A NE7G14      N/A
AHUMOA*          N/A     43  36  75 SE3G9       N/A
PTA PORTABLE*  NOT AVBL
PUU MALI*      NOT AVBL
$$

HIC003-211100-
NORTHWEST ISLANDS-

CITY           SKY/WX    TMP DP  RH WIND       PRES   REMARKS
MIDWAY ISLAND  CLEAR     63  46  55 N13       30.32R
MIDWAY NOS*    NOT AVBL
FRENCH FRIGATE NOT AVBL
$$

PHZ110>124-180-211100-
BUOY REPORTS

STATION/POSITION TIME  TEMP    WIND        PRES    WAVE   SWELL
                       AIR SEA DIR/SP/G            HT/PER HT/DIR
                 (UTC) (F)     (DEG/KT/KT) (MB)    (FT/S) (FT/D)
BUOY 51001       NOT AVBL
BUOY 51101       1000   76 77  220/ 10/ 12 1017.0S   7/11   7/300
BUOY 51100       NOT AVBL
BUOY 51003       1000   78 79   70/ 10/ 14 1017.4S   8/10   8
BUOY 51004       0914   77 78   80/ 17/ 21 1015.7F  10/ 9   8/ 90
BARBERS PT BUOY  NOT AVBL
WAIMEA BAY BUOY  1000      78                N/A     5/13
KAILUA BAY BUOY  1000      77                N/A     6/ 8   2/360
LANAI BUOY       1000      78                N/A     3/12   2/280
BARBERS PT 2     1000      78                N/A     5/15   3/200
PAUWELA MAUI     1000      76                N/A     7/ 9   3/350
HILO             1000      78                N/A     9/10   5/100
KANEOHE BAY BUOY 1000      77                N/A     5/ 9   2/360
HANALEI KAUAI    NOT AVBL
KAHULUI HARBOR   1000   76 76  330/  7/ 11 1016.2F
HONOLULU HARBOR  1000   74     310/  1/  2 1017.5S
KILO NALU        NOT AVBL
HILO HARBOR      1000   70     200/  5/  7 1017.1F
MOKUOLOE         1000   75 75  110/  7/ 10 1017.4F
NAWILIWILI       1000      77                N/A
WHOTS BUOY       NOT AVBL
BUOY 51028       NOT AVBL
$$

......................KEY........................................
  SKY/WX - SKY CONDITIONS/PRESENT WEATHER
  TMP    - TEMPERATURE IN FAHRENHEIT
  DWPT   - DEWPOINT IN FAHRENHEIT
  RH     - RELATIVE HUMIDITY IN PERCENT
  WIND   - DIRECTION AND SPEED /MPH FOR ISLANDS...KTS FOR BUOYS/
  PRES   - MEAN SEA LEVEL PRESSURE IN INCHES OF HG
  VSB    - VISIBILITY IN MILES
  HX     - HEAT INDEX
  WCI    - WIND CHILL INDEX
  VRB    - VARIABLE WIND DIRECTION
  N/A    - NOT AVAILABLE




U.S. Dept. of Commerce
NOAA National Weather Service
1325 East West Highway
Silver Spring, MD 20910
E-mail: w-nws.webmaster@noaa.gov
Page last modified: May 16, 2007
NATIONAL WEATHER SERVICE: for Safety, for Work, for Fun - FOR LIFE